TimeAFT,TemperatureF,Dew PointF,Humidity,Sea Level PressureIn,VisibilityMPH,Wind Direction,Wind SpeedMPH,Gust SpeedMPH,PrecipitationIn,Events,Conditions,WindDirDegrees,DateUTC
12:24 AM,46.4,26.6,46,30.18,-9999.0,South,2.3,-,N/A,,Clear,170,2013-11-11 19:54:00
1:25 AM,46.4,26.6,46,30.18,-9999.0,Calm,Calm,-,N/A,,Clear,0,2013-11-11 20:55:00
2:24 AM,39.2,23.0,52,30.18,-9999.0,SE,3.5,-,N/A,,Clear,140,2013-11-11 21:54:00
3:24 AM,41.0,24.8,53,30.18,-9999.0,South,3.5,-,N/A,,Clear,170,2013-11-11 22:54:00
4:24 AM,42.8,26.6,53,30.18,-9999.0,South,1.2,-,N/A,,Clear,190,2013-11-11 23:54:00
5:24 AM,41.0,26.6,57,30.15,-9999.0,Calm,Calm,-,N/A,,Clear,0,2013-11-12 00:54:00
6:25 AM,39.2,24.8,56,30.18,-9999.0,South,3.5,-,N/A,,Clear,170,2013-11-12 01:55:00
7:24 AM,41.0,24.8,53,30.18,-9999.0,ESE,2.3,-,N/A,,Clear,120,2013-11-12 02:54:00
8:24 AM,42.8,26.6,53,30.21,-9999.0,NNE,3.5,-,N/A,,Clear,30,2013-11-12 03:54:00
9:25 AM,48.2,28.4,46,30.21,-9999.0,Variable,1.2,-,N/A,,Clear,0,2013-11-12 04:55:00
10:24 AM,50.0,30.2,47,30.21,-9999.0,Variable,2.3,-,N/A,,Clear,0,2013-11-12 05:54:00
11:24 AM,55.4,28.4,36,30.18,-9999.0,Variable,1.2,-,N/A,,Clear,0,2013-11-12 06:54:00
12:25 PM,59.0,28.4,31,30.15,-9999.0,Variable,3.5,-,N/A,,Clear,0,2013-11-12 07:55:00
1:25 PM,60.8,26.6,27,30.12,-9999.0,NW,3.5,-,N/A,,Clear,310,2013-11-12 08:55:00
2:24 PM,64.4,26.6,24,30.09,-9999.0,WNW,4.6,-,N/A,,Clear,290,2013-11-12 09:54:00
3:25 PM,64.4,24.8,22,30.09,-9999.0,West,4.6,-,N/A,,Clear,270,2013-11-12 10:55:00
4:25 PM,64.4,23.0,21,30.09,-9999.0,WSW,3.5,-,N/A,,Clear,240,2013-11-12 11:55:00
5:25 PM,60.8,24.8,25,30.09,-9999.0,WSW,2.3,-,N/A,,Clear,250,2013-11-12 12:55:00
8:25 PM,53.6,26.6,35,30.12,6.2,Calm,Calm,-,N/A,,Partly Cloudy,0,2013-11-12 15:55:00
9:25 PM,53.6,26.6,35,30.12,6.2,WSW,4.6,-,N/A,,Partly Cloudy,250,2013-11-12 16:55:00
10:25 PM,50.0,24.8,37,30.12,6.2,Calm,Calm,-,N/A,,Partly Cloudy,0,2013-11-12 17:55:00